Location: The Saddle
(36.8333°N, 80.3417°W)
Time: 08:29:09
(UTC-05:00)

S-56A Canister/Altair - Pass Details

Date: 13 December 2023
Orbit: 640 x 2488 km, 38.9° (Epoch: 25 February)

Event Time Altitude Azimuth Distance (km) Brightness Sun altitude
Rises 14:08:10 0° 284° (WNW) 3,024 10.8 24.4°
Reaches altitude 10° 14:10:36 10° 279° (W) 2,043 10.1 24.2°
Maximum altitude 14:14:54 47° 205° (SSW) 852 9.3 23.7°
Drops below altitude 10° 14:19:30 10° 131° (SE) 2,173 10.1 23.3°
Sets 14:22:09 0° 126° (SE) 3,240 10.8 23.0°
